Weather History for KCKC - September, 2012

Change the Weather History Date:

Friday, September 7, 2012

  Actual Average Record
Temperature  
Mean Temperature 50 °F -  
Max Temperature 57 °F 65 °F 84 °F (2002)
Min Temperature 44 °F 46 °F 37 °F (2008)
Degree Days  
Heating Degree Days 14    
Moisture  
Dew Point 45 °F    
Average Humidity 78    
Maximum Humidity 93    
Minimum Humidity 59    
Precipitation  
Precipitation 0.10 in - - ()
Sea Level Pressure  
Sea Level Pressure 29.91 in    
Wind  
Wind Speed 5 mph (NW)    
Max Wind Speed 13 mph    
Max Gust Speed 20 mph    
Visibility 10 miles    
Events Rain    
Averages and records for this station are not official NWS values.
T = Trace of Precipitation, MM = Missing Value Source: NWS Daily Summary

Daily Weather History Graph

Daily Weather History Graph

Search for Another Location

Airport or City:

Trip Planner

Search our weather history database for the weather conditions in past years. The results will help you decide how hot, cold, wet, or windy it might be!

Date:

Astronomy

Sep. 07, 2012 Rise Set
Actual Time 6:28 AM CDT 7:29 PM CDT
Civil Twilight 5:56 AM CDT 8:00 PM CDT
Nautical Twilight 5:19 AM CDT 8:38 PM CDT
Astronomical Twilight 4:38 AM CDT 9:18 PM CDT
Moon 10:52 PM CDT (9/7) 1:53 PM CDT (9/7)
Length of Visible Light 14h 03m
Length of Day
13h 00m
Waning Gibbous, 58% of the Moon is Illuminated
Sep 7
Waning Gibbous
Sep 8
Last Quarter
Sep 15
New
Sep 22
First Quarter
Sep 29
Full

Hourly Weather History & Observations

Time (CDT) Temp. Windchill Dew Point Humidity Pressure Visibility Wind Dir Wind Speed Gust Speed Precip Events Conditions
12:13 AM 51.8 °F - 46.4 °F 82% 29.90 in 10.0 mi WNW 3.5 mph - N/A   Clear
12:34 AM 51.8 °F - 46.4 °F 82% 29.90 in 10.0 mi WNW 4.6 mph - N/A   Clear
12:54 AM 51.8 °F - 46.4 °F 82% 29.90 in 10.0 mi WNW 4.6 mph - N/A   Clear
1:13 AM 51.8 °F - 46.4 °F 82% 29.90 in 10.0 mi WNW 5.8 mph - N/A   Clear
1:34 AM 51.8 °F - 46.4 °F 82% 29.90 in 10.0 mi WNW 4.6 mph - N/A   Clear
1:54 AM 51.8 °F - 46.4 °F 82% 29.89 in 10.0 mi WNW 4.6 mph - N/A   Clear
2:13 AM 51.8 °F - 46.4 °F 82% 29.89 in 10.0 mi West 3.5 mph - N/A   Clear
2:34 AM 50.0 °F - 44.6 °F 82% 29.89 in 10.0 mi West 3.5 mph - N/A   Clear
2:54 AM 48.2 °F - 44.6 °F 87% 29.89 in 10.0 mi West 4.6 mph - N/A   Clear
3:13 AM 48.2 °F - 44.6 °F 87% 29.89 in 10.0 mi Calm Calm - N/A   Clear
3:34 AM 46.4 °F - 42.8 °F 87% 29.89 in 10.0 mi Calm Calm - N/A   Clear
3:53 AM 46.4 °F 45.2 °F 42.8 °F 87% 29.89 in 10.0 mi WNW 3.5 mph - N/A   Clear
4:14 AM 44.6 °F 43.1 °F 41.0 °F 87% 29.89 in 10.0 mi NW 3.5 mph - N/A   Clear
4:34 AM 46.4 °F 44.3 °F 42.8 °F 87% 29.89 in 10.0 mi WNW 4.6 mph - N/A   Clear
4:53 AM 46.4 °F 44.3 °F 44.6 °F 93% 29.88 in 10.0 mi WNW 4.6 mph - N/A   Clear
5:14 AM 46.4 °F 44.3 °F 42.8 °F 87% 29.88 in 10.0 mi NW 4.6 mph - N/A   Clear
5:34 AM 44.6 °F 42.2 °F 41.0 °F 87% 29.89 in 10.0 mi NW 4.6 mph - N/A   Clear
5:53 AM 46.4 °F 44.3 °F 42.8 °F 87% 29.89 in 10.0 mi WNW 4.6 mph - N/A   Clear
6:14 AM 46.4 °F 45.2 °F 42.8 °F 87% 29.90 in 10.0 mi NNW 3.5 mph - N/A   Clear
6:34 AM 44.6 °F 43.1 °F 41.0 °F 87% 29.91 in 10.0 mi NNW 3.5 mph - N/A   Clear
6:54 AM 46.4 °F 44.3 °F 42.8 °F 87% 29.91 in 10.0 mi WNW 4.6 mph - N/A   Mostly Cloudy
7:13 AM 46.4 °F 44.3 °F 44.6 °F 93% 29.92 in 10.0 mi NW 4.6 mph - N/A   Mostly Cloudy
7:34 AM 50.0 °F - 46.4 °F 87% 29.92 in 10.0 mi NW 4.6 mph - N/A   Mostly Cloudy
7:53 AM 51.8 °F - 46.4 °F 82% 29.93 in 10.0 mi WNW 4.6 mph - N/A   Mostly Cloudy
8:14 AM 51.8 °F - 46.4 °F 82% 29.92 in 10.0 mi NW 3.5 mph - N/A   Mostly Cloudy
8:33 AM 53.6 °F - 46.4 °F 77% 29.92 in 10.0 mi NW 4.6 mph - N/A   Clear
8:53 AM 53.6 °F - 46.4 °F 77% 29.92 in 10.0 mi NW 5.8 mph - N/A   Scattered Clouds
9:14 AM 53.6 °F - 44.6 °F 72% 29.92 in 10.0 mi WNW 6.9 mph - N/A   Clear
9:33 AM 55.4 °F - 46.4 °F 72% 29.93 in 10.0 mi WNW 6.9 mph - N/A   Scattered Clouds
9:53 AM 53.6 °F - 44.6 °F 72% 29.93 in 10.0 mi WNW 8.1 mph - N/A   Mostly Cloudy
10:14 AM 53.6 °F - 44.6 °F 72% 29.93 in 10.0 mi WNW 4.6 mph - N/A   Overcast
10:34 AM 51.8 °F - 46.4 °F 82% 29.93 in 2.5 mi WNW 3.5 mph - N/A Rain Heavy Rain
10:53 AM 53.6 °F - 46.4 °F 77% 29.93 in 7.0 mi Calm Calm - N/A   Mostly Cloudy
11:14 AM 53.6 °F - 46.4 °F 77% 29.92 in 10.0 mi West 4.6 mph - N/A   Mostly Cloudy
11:34 AM 53.6 °F - 46.4 °F 77% 29.92 in 10.0 mi West 4.6 mph - N/A   Overcast
11:53 AM 57.2 °F - 46.4 °F 67% 29.91 in 10.0 mi WNW 5.8 mph - N/A   Scattered Clouds
12:14 PM 51.8 °F - 46.4 °F 82% 29.92 in 10.0 mi NW 4.6 mph - 0.10 in Rain Light Rain
12:33 PM 51.8 °F - 48.2 °F 88% 29.92 in 10.0 mi WNW 3.5 mph - 0.10 in Rain Light Rain
12:54 PM 55.4 °F - 48.2 °F 77% 29.91 in 10.0 mi WNW 6.9 mph - 0.10 in   Scattered Clouds
1:13 PM 55.4 °F - 48.2 °F 77% 29.91 in 10.0 mi NW 6.9 mph - N/A   Clear
1:33 PM 53.6 °F - 46.4 °F 77% 29.90 in 7.0 mi NW 3.5 mph - N/A Rain Light Rain
1:54 PM 57.2 °F - 46.4 °F 67% 29.90 in 10.0 mi WNW 6.9 mph - N/A   Scattered Clouds
2:14 PM 57.2 °F - 46.4 °F 67% 29.90 in 10.0 mi WNW 8.1 mph - N/A   Scattered Clouds
2:38 PM 55.4 °F - 46.4 °F 72% 29.91 in 7.0 mi NW 10.4 mph 18.4 mph N/A   Scattered Clouds
2:58 PM 57.2 °F - 44.6 °F 63% 29.91 in 10.0 mi NW 10.4 mph 18.4 mph N/A   Mostly Cloudy
3:14 PM 53.6 °F - 44.6 °F 72% 29.91 in 10.0 mi NW 5.8 mph - N/A   Mostly Cloudy
3:33 PM 57.2 °F - 46.4 °F 67% 29.90 in 10.0 mi NW 8.1 mph - N/A   Scattered Clouds
3:54 PM 57.2 °F - 44.6 °F 63% 29.90 in 10.0 mi NNW 10.4 mph 19.6 mph N/A   Scattered Clouds
4:13 PM 57.2 °F - 44.6 °F 63% 29.90 in 10.0 mi NNW 12.7 mph 17.3 mph N/A   Scattered Clouds
4:54 PM 57.2 °F - 42.8 °F 59% 29.91 in 10.0 mi NW 8.1 mph 16.1 mph N/A   Scattered Clouds
5:13 PM 55.4 °F - 42.8 °F 63% 29.91 in 10.0 mi NW 6.9 mph 18.4 mph N/A   Scattered Clouds
5:33 PM 55.4 °F - 42.8 °F 63% 29.91 in 10.0 mi NNW 10.4 mph - N/A   Scattered Clouds
5:54 PM 53.6 °F - 44.6 °F 72% 29.91 in 10.0 mi NW 5.8 mph - N/A   Clear
6:13 PM 55.4 °F - 44.6 °F 67% 29.91 in 10.0 mi NW 8.1 mph - N/A   Clear
6:33 PM 53.6 °F - 42.8 °F 67% 29.91 in 10.0 mi NW 8.1 mph 17.3 mph N/A   Clear
6:54 PM 53.6 °F - 42.8 °F 67% 29.92 in 10.0 mi NW 6.9 mph - N/A   Clear
7:13 PM 53.6 °F - 44.6 °F 72% 29.92 in 10.0 mi NW 12.7 mph 18.4 mph N/A   Scattered Clouds
7:33 PM 51.8 °F - 44.6 °F 76% 29.93 in 10.0 mi NW 6.9 mph - N/A   Mostly Cloudy
7:54 PM 50.0 °F - 44.6 °F 82% 29.93 in 10.0 mi NW 6.9 mph - N/A   Scattered Clouds
8:13 PM 50.0 °F - 44.6 °F 82% 29.93 in 10.0 mi NW 6.9 mph - N/A   Scattered Clouds
8:33 PM 50.0 °F - 44.6 °F 82% 29.93 in 10.0 mi NW 9.2 mph - N/A   Clear
8:54 PM 50.0 °F - 44.6 °F 82% 29.93 in 10.0 mi NW 5.8 mph - N/A   Scattered Clouds
9:13 PM 50.0 °F - 42.8 °F 76% 29.93 in 10.0 mi NW 6.9 mph - N/A   Scattered Clouds
9:34 PM 51.8 °F - 44.6 °F 76% 29.93 in 10.0 mi NW 5.8 mph - N/A   Overcast
9:54 PM 51.8 °F - 42.8 °F 71% 29.93 in 10.0 mi WNW 5.8 mph - N/A   Overcast
10:13 PM 51.8 °F - 42.8 °F 71% 29.93 in 10.0 mi NW 6.9 mph - N/A   Mostly Cloudy
10:34 PM 48.2 °F - 42.8 °F 82% 29.93 in 10.0 mi WNW 4.6 mph - N/A   Scattered Clouds
10:54 PM 48.2 °F - 42.8 °F 82% 29.93 in 10.0 mi WNW 4.6 mph - N/A   Clear
11:34 PM 46.4 °F 45.2 °F 42.8 °F 87% 29.92 in 10.0 mi WNW 3.5 mph - N/A   Clear
11:54 PM 46.4 °F 44.3 °F 42.8 °F 87% 29.92 in 10.0 mi WNW 4.6 mph - N/A   Clear